Location: Unspecified
(0.0000°N, 0.0000°E)
Time: 15:56:34
(UTC+02:00)

Envisat - Visible Passes

Search period start: 18 July 2018 00:00
Search period end: 28 July 2018 00:00
Orbit: 764 x 766 km, 98.2° (Epoch: 18 July)

Date Brightness Start Highest point End Pass type
(mag) Time Alt. Az. Time Alt. Az. Time Alt. Az.
18 Jul 2.9 21:32:58 30° SSE 21:35:31 73° ENE 21:40:34 10° N visible
19 Jul 4.1 20:55:46 15° SE 20:58:53 25° ENE 21:02:59 10° NNE visible
19 Jul 5.2 22:35:58 16° SW 22:37:37 19° WSW 22:41:07 10° WNW visible
20 Jul 3.6 21:58:47 31° SSW 22:01:01 53° WSW 22:05:56 10° NNW visible
21 Jul 3.1 21:21:35 25° SE 21:24:23 53° ENE 21:29:18 10° N visible
22 Jul 4.4 20:44:24 10° ESE 20:47:45 19° ENE 20:51:12 10° NE visible
22 Jul 4.9 22:24:36 20° SW 22:26:29 25° WSW 22:30:38 10° NW visible
23 Jul 3.1 21:47:25 31° S 21:49:53 74° WSW 21:54:55 10° NNW visible
24 Jul 3.5 21:10:14 20° SE 21:13:15 38° ENE 21:17:55 10° N visible
24 Jul 5.7 22:50:26 11° WSW 22:51:58 12° WSW 22:53:50 10° W visible
25 Jul 4.7 20:34:12 10° ESE 20:36:38 13° ENE 20:39:02 10° NE visible
25 Jul 4.4 22:13:15 24° SW 22:15:22 34° WSW 22:19:56 10° NW visible
26 Jul 2.8 21:36:03 29° SSE 21:38:44 82° ENE 21:43:48 10° N visible
27 Jul 3.9 20:58:52 15° SE 21:02:06 28° ENE 21:06:24 10° NNE visible
27 Jul 5.4 22:39:04 14° SW 22:40:50 17° WSW 22:43:59 10° WNW visible
